Regional Weather Roundup
Issued by NWS

Home | Current Version | Previous Version | Text Only | Print | Product List | Glossary On
Versions: 1 2 3 4 5 6 7 8 9 10 11 12 13 14 15 16 17 18 19 20 21 22 23 24 25 26 27 28 29 30 31 32 33 34 35 36 37 38 39 40 41 42 43 44 45 46 47 48 49 50
000
ASUS45 KSLC 291810
RWRUT

UTAH REGIONAL WEATHER ROUNDUP
NATIONAL WEATHER SERVICE SALT LAKE CITY UT
1200 PM MDT WED JUL 29 2015

UTZ001>011-023>025-291900-

NORTHERN UTAH

CITY           SKY/WX    TMP DP  RH WIND       PRES   REMARKS
BRIGHAM CITY   SUNNY     74  29  19 CALM      30.31S
HILL AFB       SUNNY     74  33  22 VRB1      30.33R
LOGAN          SUNNY     70  34  26 NE6       30.33F
OGDEN          SUNNY     75  36  24 VRB5      30.31R
PROVO AIRPORT  NOT AVBL
SALT LAKE CITY SUNNY     76  32  20 NW6       30.30S
VERNAL         SUNNY     77  19  11 VRB3      30.33S
WENDOVER       SUNNY     75  30  19 E8        30.32S
HEBER CITY     SUNNY     70  23  17 CALM      30.37F
WEST JORDAN    SUNNY     73  30  20 N6        30.33R

$$

UTZ012>022-026-027-291900-

SOUTHERN/CENTRAL UTAH

CITY           SKY/WX    TMP DP  RH WIND       PRES   REMARKS
BLANDING       SUNNY     85  32  15 SE7       30.37S
BRYCE CANYON   SUNNY     76  25  15 S5        30.44F
CEDAR CITY     SUNNY     77  26  15 VRB3      30.32F
DELTA          SUNNY     77  22  12 N7        30.30F
HANKSVILLE     SUNNY     88  27  11 SE6       30.24F
MILFORD        SUNNY     80  21  11 N12       30.30S
MOAB/CYNLANDS  SUNNY     88  26  10 VRB3      30.22S
PRICE          SUNNY     84  21  10 CALM      30.31F
ST GEORGE      CLEAR     90  34  13 CALM      30.13S
KANAB          SUNNY     90  32  12 E6        30.27F

$$

REGIONAL REPORTS     COLORADO/ARIZONA

CITY           SKY/WX    TMP DP  RH WIND       PRES   REMARKS
CRAIG, CO      SUNNY     75  27  17 CALM      30.38S
GRAND JUNCTION SUNNY     83  34  17 S8        30.26S
RIFLE          SUNNY     81  34  18 MISG      30.30F
MONTROSE       SUNNY     81  37  20 VRB5      30.32F
CORTEZ         SUNNY     85  37  18 W3        30.29S
PAGE, AZ       PTSUNNY   88  28  11 VRB6      30.19S
GRAND CANYON   PTSUNNY   83  25  12 MISG      30.36R
KINGMAN        MOSUNNY   90  52  27 SW10G17   30.13S
FLAGSTAFF      MOSUNNY   75  44  33 W5        30.38S

$$

REGIONAL REPORTS    NEVADA/IDAHO/WYOMING

CITY           SKY/WX    TMP DP  RH WIND       PRES   REMARKS
LAS VEGAS, NV  MOSUNNY   96  29   9 E8        30.00S HX  90
ELY            SUNNY     74  24  15 VRB3      30.37S
ELKO           SUNNY     77  24  14 CALM      30.30S
POCATELLO, ID  SUNNY     72  38  29 CALM      30.34F
BURLEY         SUNNY     73  37  27 NE7       30.30F
EVANSTON, WY   SUNNY     68  22  17 VRB6      30.44S
ROCK SPRINGS   SUNNY     66  26  22 VRB3      30.43F
KEMMERER       SUNNY     64  25  22 CALM      30.46S

$$


USA.gov is the U.S. government's official web portal to all federal, state and local government web resources and services.